TimeEST,TemperatureF,Dew PointF,Humidity,Sea Level PressureIn,VisibilityMPH,Wind Direction,Wind SpeedMPH,Gust SpeedMPH,PrecipitationIn,Events,Conditions,WindDirDegrees,DateUTC
12:56 AM,27.0,21.9,81,29.97,8.0,WNW,3.5,-,N/A,,Mostly Cloudy,300,2013-02-24 05:56:00
1:35 AM,28.4,23.0,80,29.95,8.0,WNW,9.2,-,N/A,,Overcast,300,2013-02-24 06:35:00
1:56 AM,28.0,23.0,81,29.99,7.0,NW,6.9,-,N/A,,Overcast,310,2013-02-24 06:56:00
2:56 AM,27.0,21.9,81,30.01,8.0,NW,9.2,-,N/A,,Overcast,320,2013-02-24 07:56:00
3:56 AM,27.0,21.9,81,29.99,8.0,NNW,10.4,-,N/A,,Overcast,330,2013-02-24 08:56:00
4:56 AM,27.0,21.0,78,30.02,8.0,WNW,9.2,-,N/A,,Overcast,290,2013-02-24 09:56:00
5:18 AM,26.6,21.2,80,29.99,7.0,NNW,9.2,-,N/A,,Overcast,340,2013-02-24 10:18:00
5:56 AM,26.1,21.0,81,30.04,8.0,NNW,6.9,-,N/A,,Overcast,330,2013-02-24 10:56:00
6:27 AM,26.6,19.4,74,30.02,10.0,NW,12.7,-,N/A,,Mostly Cloudy,320,2013-02-24 11:27:00
6:56 AM,26.6,19.4,74,30.03,10.0,WNW,10.4,-,N/A,,Overcast,300,2013-02-24 11:56:00
7:56 AM,26.1,18.0,71,30.08,9.0,WNW,6.9,-,N/A,,Overcast,290,2013-02-24 12:56:00
8:56 AM,27.0,18.0,69,30.11,10.0,WNW,12.7,-,N/A,,Mostly Cloudy,300,2013-02-24 13:56:00
9:56 AM,28.0,19.0,69,30.13,10.0,NW,12.7,-,N/A,,Overcast,320,2013-02-24 14:56:00
10:56 AM,28.9,19.0,67,30.14,10.0,WNW,8.1,-,N/A,,Mostly Cloudy,300,2013-02-24 15:56:00
11:56 AM,30.0,19.9,66,30.14,10.0,WNW,12.7,-,N/A,,Mostly Cloudy,300,2013-02-24 16:56:00
12:56 PM,34.0,21.9,61,30.14,10.0,WNW,10.4,19.6,N/A,,Mostly Cloudy,300,2013-02-24 17:56:00
1:56 PM,34.0,21.0,59,30.13,10.0,WNW,9.2,-,N/A,,Mostly Cloudy,290,2013-02-24 18:56:00
2:21 PM,35.6,21.2,56,30.10,10.0,West,11.5,17.3,N/A,,Mostly Cloudy,260,2013-02-24 19:21:00
2:56 PM,37.0,21.9,54,30.12,10.0,West,10.4,-,N/A,,Mostly Cloudy,260,2013-02-24 19:56:00
3:56 PM,34.0,21.0,59,30.14,10.0,NW,5.8,-,N/A,,Scattered Clouds,320,2013-02-24 20:56:00
4:56 PM,37.0,21.9,54,30.14,10.0,NNW,8.1,-,N/A,,Partly Cloudy,340,2013-02-24 21:56:00
5:56 PM,35.1,21.9,59,30.16,10.0,North,4.6,-,N/A,,Partly Cloudy,350,2013-02-24 22:56:00
6:56 PM,32.0,21.0,64,30.16,10.0,Calm,Calm,-,N/A,,Clear,0,2013-02-24 23:56:00
7:56 PM,32.0,21.0,64,30.17,10.0,Calm,Calm,-,N/A,,Clear,0,2013-02-25 00:56:00
8:56 PM,28.9,21.0,72,30.18,10.0,Calm,Calm,-,N/A,,Clear,0,2013-02-25 01:56:00
9:56 PM,30.0,21.0,69,30.19,10.0,Calm,Calm,-,N/A,,Clear,0,2013-02-25 02:56:00
10:56 PM,27.0,19.0,72,30.19,10.0,ESE,3.5,-,N/A,,Clear,110,2013-02-25 03:56:00
11:56 PM,28.0,19.9,72,30.18,10.0,Calm,Calm,-,N/A,,Clear,0,2013-02-25 04:56:00